Location: Pacheco
(37.9835°N, 122.0752°W)
Time: 22:01:37
(UTC+00:00)

Cosmos 1939 Rocket - Visible Passes

Search period start: 12 July 2024 00:00
Search period end: 22 July 2024 00:00
Orbit: 513 x 557 km, 97.5° (Epoch: 11 July)

Date Brightness Start Highest point End Pass type
(mag) Time Alt. Az. Time Alt. Az. Time Alt. Az.
14 Jul 4.2 12:18:51 10° NNE 12:22:22 37° E 12:25:50 10° SSE visible
15 Jul 4.7 12:10:11 10° NE 12:13:29 28° E 12:16:44 10° SSE visible
16 Jul 5.1 12:01:36 10° NE 12:04:35 22° E 12:07:33 10° SSE visible
17 Jul 5.4 11:53:08 10° NE 11:55:40 17° E 11:58:12 10° SE visible
18 Jul 5.6 11:44:50 10° ENE 11:46:44 13° E 11:48:38 10° ESE visible
19 Jul 5.9 11:37:13 10° E 11:37:47 10° E 11:38:21 10° E visible
